User: anonymous   Login
Location: Oshawa
(43.9000°N, 78.8670°W)
Time: 03:35:57
(UTC-04:00)
Language:

S-56A Canister/Altair - Orbit

View from above orbital plane
View from above orbital plane
View from above satellite
View from above satellite

Ground track
Ground track

The orbit data is extracted from the following two-line orbital elements,

1    82U 61004B   17290.18680661 +.00000163 +00000-0 +18702-3 0  9997
2    82 038.8532 205.5835 1172051 062.0492 309.3850 12.25885661688238
Epoch (UTC): 17 October 2017 04:29:00
Eccentricity: 0.1172051
inclination: 38.8532°
perigee height: 636 km
apogee height: 2498 km
right ascension of ascending node: 205.5835°
argument of perigee: 62.0492°
revolutions per day: 12.25885661
mean anomaly at epoch: 309.3850°
orbit number at epoch: 68823

The dashed part of the orbit path shows where the satellite is in the earth's shadow,  

DLR